World > North America > United States > South Carolina > Lucknow

Lucknow, SC Hourly Weather Conditions

Feedback E-mail the Weather

Quick WX

Lucknow, SC Weather Maps

°F °C°F °C
Lucknow Weather Map
UTC Time: 2/1/2023, 18:23
Your Time:

Lucknow, SC Regional Weather

Expires:202302011900;;628285
ASUS42 KCAE 011810
RWRCAE
REGIONAL WEATHER ROUNDUP
NATIONAL WEATHER SERVICE COLUMBIA SC
100 PM EST WED FEB 01 2023

NOTE: "FAIR" INDICATES FEW OR NO CLOUDS BELOW 12,000 FEET WITH NO
SIGNIFICANT WEATHER AND/OR OBSTRUCTIONS TO VISIBILITY.

NOT ALL STATIONS ARE QUALITY CONTROLLED BY THE NATIONAL 
WEATHER SERVICE. USE DATA WITH CAUTION...ESPECIALLY 
DEWPOINT OBSERVATIONS.


SCZ001>059-115-116-135>137-GAZ040-063>065-077-011900-
...UPSTATE SOUTH CAROLINA...
  
CITY           SKY/WX    TMP DP  RH WIND       PRES   REMARKS
ANDERSON       PTSUNNY   67  52  58 W15G21    30.15F                  
6HR MIN TEMP:  55; 6HR MAX TEMP:  67;                                

LIBERTY        CLOUDY    64  52  63 W6        30.13F                  
6HR MIN TEMP:  55; 6HR MAX TEMP:  66;                                

SPARTANBURG    CLOUDY    54  50  87 NE10      30.17F                  
CLEMSON        PTSUNNY   64  52  64 W9        30.16F                  
6HR MIN TEMP:  54; 6HR MAX TEMP:  64;                                

GREENVILLE     CLOUDY    65  53  65 CALM      30.15F                  
6HR MIN TEMP:  57; 6HR MAX TEMP:  66;                                

GREENWOOD      CLOUDY    69  54  58 W12       30.17F                  
6HR MIN TEMP:  55; 6HR MAX TEMP:  69;                                

GREER          CLOUDY    60  49  66 NE7       30.15F                  
6HR MIN TEMP:  57; 6HR MAX TEMP:  62;                                

ROCK HILL      CLOUDY    45  44  97 VRB6      30.21F FOG              
6HR MIN TEMP:  45; 6HR MAX TEMP:  59; 6HR PCP: TRACE;                

CHESTER        CLOUDY    46  46 100 NE14      30.21F                  
LAURENS        CLOUDY    66  52  59 W7G17     30.15F                  


...CENTRAL SOUTH CAROLINA...
  
CITY           SKY/WX    TMP DP  RH WIND       PRES   REMARKS
COLUMBIA APT   PTSUNNY   73  56  54 W13       30.13F                  
6HR MIN TEMP:  61; 6HR MAX TEMP:  74; 6HR PCP: TRACE;                

COLUMBIA OWENS MOSUNNY   72  55  55 NW12G21   30.14F                  
6HR MIN TEMP:  60; 6HR MAX TEMP:  73; 6HR PCP: TRACE;                

MCENTIRE ANGB  PTSUNNY   74  58  55 W13       30.11F                  
6HR MIN TEMP:  60; 6HR MAX TEMP:  74;                                

ORANGEBURG     MOSUNNY   74  58  57 NW10      30.14F                  
6HR MIN TEMP:  61; 6HR MAX TEMP:  74;                                

SUMTER SHAW    PTSUNNY   77  57  48 W12       30.11F                  
6HR MIN TEMP:  61; 6HR MAX TEMP:  77;                                

AIKEN          PTSUNNY   70  56  61 NW8G17    30.16F                  
6HR MIN TEMP:  60; 6HR MAX TEMP:  72;                                

BARNWELL       PTSUNNY   73  59  60 SW10      30.14F                  
MANNING        FAIR      72  57  60 NW5       30.14F                  
CAMDEN         CLOUDY    57  50  77 N14       30.18R                  
LANCASTER      CLOUDY    48  45  87 NE7G14    30.20F                  
WINNSBORO      PTSUNNY   68  55  64 W3        30.15F                  


...EASTERN AND COASTAL SOUTH CAROLINA...
  
CITY           SKY/WX    TMP DP  RH WIND       PRES   REMARKS
MYRTLE BEACH   PTSUNNY   72  61  68 W12       30.12F                  
6HR MIN TEMP:  62; 6HR MAX TEMP:  73; 6HR PCP:  0.02;                

N MYRTLE BCH   PTSUNNY   63  54  72 N13G21    30.14R                  
6HR MIN TEMP:  61; 6HR MAX TEMP:  71; 6HR PCP: TRACE;                

CONWAY         CLOUDY    63  55  77 N12       30.14F                  
MARION         CLOUDY    50  46  87 N13       30.19S                  
HARTSVILLE     CLOUDY    50  46  87 N13       30.19F                  
FLORENCE       CLOUDY    55  48  77 NE16      30.18S                  
6HR MIN TEMP:  54; 6HR MAX TEMP:  69;                                

DARLINGTON     CLOUDY    50  47  89 NE13      30.20F                  
6HR MIN TEMP:  50; 6HR MAX TEMP:  66;                                

CHARLESTON APT MOSUNNY   79  61  53 W7        30.12F                  
6HR MIN TEMP:  63; 6HR MAX TEMP:  80;                                

MOUNT PLEASANT FAIR      77  66  69 CALM      30.12F                  
WALTERBORO     SUNNY     73  59  60 W7G18     30.15F                  
BEAUFORT       MOSUNNY   77  61  57 NW8       30.13F                  
6HR MIN TEMP:  62; 6HR MAX TEMP:  78;                                

HILTON HEAD    MOSUNNY   77  64  65 SW9       30.15F                  


...EASTERN GEORGIA...
  
CITY           SKY/WX    TMP DP  RH WIND       PRES   REMARKS
AUGUSTA BUSH F MOSUNNY   73  56  54 W8        30.15F                  
6HR MIN TEMP:  58; 6HR MAX TEMP:  73;                                

AUGUSTA DANIEL CLOUDY    70  56  61 NW6       30.17F                  
6HR MIN TEMP:  60; 6HR MAX TEMP:  71;                                

THOMSON        CLOUDY    65  54  68 W8        30.19F                  
6HR MIN TEMP:  59; 6HR MAX TEMP:  67;                                

WASHINGTON     CLOUDY    65  52  64 NW14G20   30.19F                  
6HR MIN TEMP:  58; 6HR MAX TEMP:  65;                                

CLAXTON        FAIR      79  59  50 W5        30.15F HAZE             
6HR MIN TEMP:  65; 6HR MAX TEMP:  79;                                

SYLVANIA       SUNNY     77  59  54 MISG      30.16F                  
6HR MIN TEMP:  61; 6HR MAX TEMP:  77;                                

STATESBORO     MOSUNNY   75  58  54 NW9       30.15F                  
6HR MIN TEMP:  60; 6HR MAX TEMP:  76;                                

SAVANNAH       PTSUNNY   80  58  46 SW10      30.14F                  
6HR MIN TEMP:  61; 6HR MAX TEMP:  80;                                



...SOUTHERN NORTH CAROLINA...
  
CITY           SKY/WX    TMP DP  RH WIND       PRES   REMARKS
CHARLOTTE      CLOUDY    45  43  93 NE10      30.21F FOG              
6HR MIN TEMP:  45; 6HR MAX TEMP:  59;                                

MONROE         CLOUDY    45  43  93 NE9       30.21F FOG              
6HR MIN TEMP:  44; 6HR MAX TEMP:  60;                                

WADESBORO      CLOUDY    47  41  80 N7        30.23S                  
6HR MIN TEMP:  44; 6HR MAX TEMP:  58;                                

ROCKINGHAM     CLOUDY    47  42  82 NE8       30.22F                  
6HR MIN TEMP:  45; 6HR MAX TEMP:  61;                                

RUTHERFORDTON  CLOUDY    46  46 100 SE3       30.19F                  
ASHEVILLE      PTSUNNY   46  38  73 N6        30.18F                  
6HR MIN TEMP:  40; 6HR MAX TEMP:  46;                                


$$
  

SKY/WX - Weather  TMP - Temperature  DP - Dew Point  RH - Humidity
WIND - Wind Direction/Speed PRES - Barometric Pressure VSB - Visibility
WCI - Wind Chill Index E13G22 Wind - East Wind 13 mph/Gusts of 22 mph

Trending Headlines

Trending Entertainment Headlines

Lucknow Radar Loop

Use the map search tool if you want to place a location marker on the radar map...

Lucknow Quick Facts

National Two Day Weather Forecast


E-mail the Lucknow Weather Forecast

Voice your opinion or tell us about page issues...